BAW33C LXGB-LPMA

Flight info

Callsign BAW33C
Flight time 1h 51m
Altitude 34000
Route SOVIS T100 ORTOP DCT BAROK DCT ASGAM DCT RULET B18 RAKUN
Aircraft A320/M-SDE3FGHIRWY/LB1

Departure

Time 2026-05-04 15:10
Airport Gibraltar Airport (LXGB)

Arrival

Time 2026-05-04 17:01
Airport Cristiano Ronaldo International Airport (LPMA)
Time Latitude Longitude Altitude Speed Heading
2026-05-04 14:45 36.15305 -5.34629 19 ft 0 kts 357°
2026-05-04 15:01 36.15291 -5.34628 18 ft 4 kts 357°
2026-05-04 15:01 36.15269 -5.34626 18 ft 3 kts 356°
2026-05-04 15:01 36.15244 -5.34620 18 ft 4 kts 325°
2026-05-04 15:02 36.15229 -5.34597 22 ft 4 kts 277°
2026-05-04 15:02 36.15229 -5.34567 22 ft 2 kts 267°
2026-05-04 15:02 36.15229 -5.34564 22 ft 0 kts 267°
2026-05-04 15:05 36.15229 -5.34565 22 ft 1 kts 267°
2026-05-04 15:05 36.15228 -5.34582 20 ft 4 kts 267°
2026-05-04 15:05 36.15228 -5.34620 18 ft 5 kts 272°
2026-05-04 15:05 36.15228 -5.34666 18 ft 6 kts 259°
2026-05-04 15:06 36.15194 -5.34683 18 ft 6 kts 178°
2026-05-04 15:06 36.15143 -5.34673 18 ft 9 kts 150°
2026-05-04 15:06 36.15129 -5.34595 17 ft 11 kts 86°
2026-05-04 15:07 36.15138 -5.34366 15 ft 15 kts 87°
2026-05-04 15:07 36.15142 -5.34238 15 ft 15 kts 88°
2026-05-04 15:07 36.15149 -5.34128 16 ft 10 kts 73°
2026-05-04 15:07 36.15184 -5.34056 16 ft 8 kts 76°
2026-05-04 15:08 36.15156 -5.34026 16 ft 4 kts 189°
2026-05-04 15:08 36.15148 -5.34060 16 ft 5 kts 268°
2026-05-04 15:08 36.15148 -5.34073 16 ft 0 kts 268°
2026-05-04 15:09 36.15139 -5.34342 15 ft 70 kts 267°
2026-05-04 15:09 36.15110 -5.35205 23 ft 127 kts 268°
2026-05-04 15:10 36.15025 -5.37475 1243 ft 131 kts 270°
2026-05-04 15:10 36.14950 -5.38597 1862 ft 131 kts 255°
2026-05-04 15:10 36.13901 -5.40795 2292 ft 169 kts 242°
2026-05-04 15:11 36.13251 -5.42130 2455 ft 193 kts 243°
2026-05-04 15:11 36.12525 -5.43632 2692 ft 219 kts 242°
2026-05-04 15:11 36.11689 -5.45356 3131 ft 240 kts 240°
2026-05-04 15:11 36.10825 -5.47128 3864 ft 246 kts 240°
2026-05-04 15:12 36.09937 -5.48953 4670 ft 250 kts 240°
2026-05-04 15:12 36.09040 -5.50802 5446 ft 252 kts 241°
2026-05-04 15:12 36.08133 -5.52674 6296 ft 256 kts 241°
2026-05-04 15:12 36.07217 -5.54567 7114 ft 257 kts 241°
2026-05-04 15:13 36.06295 -5.56476 7908 ft 260 kts 240°
2026-05-04 15:13 36.05363 -5.58405 8659 ft 263 kts 240°
2026-05-04 15:13 36.04421 -5.60355 9431 ft 265 kts 240°
2026-05-04 15:13 36.03475 -5.62316 10198 ft 267 kts 240°
2026-05-04 15:14 36.02484 -5.64367 10412 ft 289 kts 240°
2026-05-04 15:14 36.01417 -5.66574 10581 ft 309 kts 240°
2026-05-04 15:14 36.00295 -5.68885 11065 ft 317 kts 240°
2026-05-04 15:14 35.99154 -5.71231 11661 ft 321 kts 240°
2026-05-04 15:15 35.97998 -5.73606 12257 ft 325 kts 240°
2026-05-04 15:15 35.96838 -5.76016 12872 ft 328 kts 243°
2026-05-04 15:15 35.95967 -5.78618 13475 ft 330 kts 255°
2026-05-04 15:16 35.95184 -5.84239 14630 ft 335 kts 261°
2026-05-04 15:16 35.94828 -5.87084 15193 ft 336 kts 261°
2026-05-04 15:16 35.94101 -5.92819 16306 ft 340 kts 261°
2026-05-04 15:17 35.93765 -5.95721 16861 ft 342 kts 265°
2026-05-04 15:17 35.93647 -6.01632 17982 ft 347 kts 268°
2026-05-04 15:17 35.93598 -6.04613 18529 ft 349 kts 268°
2026-05-04 15:18 35.93546 -6.07609 19052 ft 350 kts 268°
2026-05-04 15:18 35.93488 -6.10618 19585 ft 352 kts 268°
2026-05-04 15:18 35.93428 -6.13647 20120 ft 354 kts 268°
2026-05-04 15:19 35.93310 -6.19692 21182 ft 356 kts 268°
2026-05-04 15:19 35.93251 -6.22753 21700 ft 358 kts 268°
2026-05-04 15:19 35.93131 -6.28910 22696 ft 360 kts 268°
2026-05-04 15:20 35.93071 -6.32011 23187 ft 362 kts 268°
2026-05-04 15:20 35.93011 -6.35118 23655 ft 363 kts 268°
2026-05-04 15:20 35.92947 -6.38237 24046 ft 364 kts 267°
2026-05-04 15:20 35.92877 -6.41363 24453 ft 365 kts 267°
2026-05-04 15:21 35.92803 -6.44500 24839 ft 366 kts 267°
2026-05-04 15:21 35.92728 -6.47639 25233 ft 366 kts 267°
2026-05-04 15:21 35.92588 -6.53933 25990 ft 368 kts 267°
2026-05-04 15:22 35.92519 -6.57088 26363 ft 368 kts 267°
2026-05-04 15:22 35.92446 -6.60254 26724 ft 369 kts 267°
2026-05-04 15:22 35.92295 -6.66596 27437 ft 371 kts 267°
2026-05-04 15:23 35.92290 -6.69781 27788 ft 373 kts 272°
2026-05-04 15:23 35.92685 -6.72954 28140 ft 376 kts 277°
2026-05-04 15:23 35.93187 -6.76123 28488 ft 377 kts 277°
2026-05-04 15:23 35.93685 -6.79304 28838 ft 377 kts 277°
2026-05-04 15:24 35.94659 -6.85621 29826 ft 372 kts 277°
2026-05-04 15:24 35.95609 -6.91862 30705 ft 368 kts 277°
2026-05-04 15:25 35.96076 -6.94916 31072 ft 367 kts 277°
2026-05-04 15:25 35.96552 -6.98003 31435 ft 366 kts 277°
2026-05-04 15:25 35.97027 -7.01084 31801 ft 365 kts 277°
2026-05-04 15:26 35.97971 -7.07234 32539 ft 364 kts 277°
2026-05-04 15:26 35.98441 -7.10296 32902 ft 363 kts 277°
2026-05-04 15:26 35.99373 -7.16408 33632 ft 362 kts 277°
2026-05-04 15:27 35.99834 -7.19455 33974 ft 361 kts 277°
2026-05-04 15:27 36.00757 -7.25611 34076 ft 369 kts 277°
2026-05-04 15:28 36.02156 -7.34957 34105 ft 371 kts 277°
2026-05-04 15:29 36.02601 -7.44467 34086 ft 371 kts 268°
2026-05-04 15:30 36.02298 -7.66834 34078 ft 373 kts 268°
2026-05-04 15:31 36.02331 -7.75376 34078 ft 374 kts 271°
2026-05-04 15:32 36.02840 -7.91454 34094 ft 375 kts 271°
2026-05-04 15:34 36.03233 -8.07561 34097 ft 375 kts 271°
2026-05-04 15:34 36.03467 -8.17235 34102 ft 376 kts 271°
2026-05-04 15:35 36.03685 -8.26920 34108 ft 376 kts 270°
2026-05-04 15:36 36.03891 -8.36600 34100 ft 376 kts 271°
2026-05-04 15:36 36.04032 -8.43049 34100 ft 376 kts 271°
2026-05-04 15:37 36.04166 -8.49501 34103 ft 376 kts 271°
2026-05-04 15:37 36.04294 -8.55962 34105 ft 376 kts 271°
2026-05-04 15:38 36.04421 -8.62428 34105 ft 376 kts 271°
2026-05-04 15:38 36.04545 -8.68891 34107 ft 376 kts 271°
2026-05-04 15:39 36.04666 -8.75357 34101 ft 377 kts 271°
2026-05-04 15:40 36.04843 -8.85069 34111 ft 377 kts 271°
2026-05-04 15:40 36.04952 -8.91501 34112 ft 377 kts 271°
2026-05-04 15:41 36.05062 -8.97979 34116 ft 377 kts 271°
2026-05-04 15:41 36.05172 -9.04458 34116 ft 377 kts 271°
2026-05-04 15:42 36.05274 -9.10933 34109 ft 377 kts 271°
2026-05-04 15:42 36.05369 -9.17417 34108 ft 377 kts 271°
2026-05-04 15:43 36.05461 -9.23899 34111 ft 378 kts 271°
2026-05-04 15:43 36.05556 -9.30418 34086 ft 381 kts 271°
2026-05-04 15:44 36.05645 -9.36989 34093 ft 384 kts 271°
2026-05-04 15:44 36.05730 -9.43601 34090 ft 386 kts 271°
2026-05-04 15:45 36.05813 -9.50237 34094 ft 387 kts 271°
2026-05-04 15:45 36.05890 -9.56895 34103 ft 388 kts 271°
2026-05-04 15:46 36.05966 -9.63556 34106 ft 388 kts 271°
2026-05-04 15:46 36.06039 -9.70230 34118 ft 388 kts 270°
2026-05-04 15:47 36.06103 -9.76903 34120 ft 389 kts 270°
2026-05-04 15:47 36.06165 -9.83539 34115 ft 389 kts 270°
2026-05-04 15:48 36.06225 -9.90213 34126 ft 388 kts 271°
2026-05-04 15:48 36.06316 -10.00224 34136 ft 388 kts 271°
2026-05-04 15:49 36.06363 -10.06896 34136 ft 388 kts 271°
2026-05-04 15:49 36.06411 -10.13570 34137 ft 388 kts 270°
2026-05-04 15:50 36.06455 -10.20238 34139 ft 388 kts 270°
2026-05-04 15:50 36.06498 -10.26918 34145 ft 390 kts 271°
2026-05-04 15:51 36.06529 -10.33636 34124 ft 392 kts 270°
2026-05-04 15:51 36.06571 -10.40373 34124 ft 393 kts 270°
2026-05-04 15:52 36.06604 -10.47127 34128 ft 393 kts 270°
2026-05-04 15:52 36.06620 -10.53893 34133 ft 394 kts 270°
2026-05-04 15:53 36.06639 -10.60655 34138 ft 393 kts 270°
2026-05-04 15:53 36.06660 -10.67408 34152 ft 392 kts 271°
2026-05-04 15:54 36.06684 -10.74095 34157 ft 392 kts 270°
2026-05-04 15:54 36.06694 -10.80817 34151 ft 391 kts 270°
2026-05-04 15:55 36.06696 -10.87582 34154 ft 391 kts 270°
2026-05-04 15:55 36.06701 -10.94247 34140 ft 390 kts 270°
2026-05-04 15:56 36.06698 -11.00953 34149 ft 390 kts 270°
2026-05-04 15:56 36.06688 -11.07642 34155 ft 389 kts 270°
2026-05-04 15:57 36.06679 -11.14330 34158 ft 389 kts 270°
2026-05-04 15:57 36.06677 -11.21009 34163 ft 389 kts 270°
2026-05-04 15:58 36.06659 -11.27689 34156 ft 388 kts 270°
2026-05-04 15:58 36.06634 -11.34359 34140 ft 388 kts 270°
2026-05-04 15:59 36.06614 -11.41036 34136 ft 389 kts 270°
2026-05-04 15:59 36.06591 -11.47716 34145 ft 389 kts 270°
2026-05-04 16:00 36.06562 -11.54405 34149 ft 389 kts 270°
2026-05-04 16:00 36.06526 -11.61095 34151 ft 390 kts 270°
2026-05-04 16:01 36.06484 -11.67792 34147 ft 389 kts 270°
2026-05-04 16:01 36.06441 -11.74482 34147 ft 389 kts 270°
2026-05-04 16:02 36.06402 -11.81176 34158 ft 389 kts 270°
2026-05-04 16:03 36.06316 -11.91209 34152 ft 389 kts 270°
2026-05-04 16:03 36.06266 -11.97904 34152 ft 389 kts 270°
2026-05-04 16:04 36.06215 -12.04595 34155 ft 390 kts 270°
2026-05-04 16:04 36.06116 -12.14646 34150 ft 390 kts 270°
2026-05-04 16:05 36.06048 -12.21356 34149 ft 390 kts 270°
2026-05-04 16:06 36.05938 -12.31374 34146 ft 391 kts 270°
2026-05-04 16:07 36.05781 -12.44807 34139 ft 391 kts 270°
2026-05-04 16:07 36.04911 -12.54816 34141 ft 396 kts 252°
2026-05-04 16:08 36.03727 -12.57900 34146 ft 401 kts 242°
2026-05-04 16:09 35.94372 -12.71002 34146 ft 408 kts 233°
2026-05-04 16:10 35.86693 -12.81343 34153 ft 409 kts 233°
2026-05-04 16:11 35.78989 -12.91668 34133 ft 409 kts 232°
2026-05-04 16:12 35.67411 -13.07130 34157 ft 411 kts 232°
2026-05-04 16:13 35.59639 -13.17467 34158 ft 412 kts 232°
2026-05-04 16:14 35.51842 -13.27800 34170 ft 413 kts 232°
2026-05-04 16:16 35.42096 -13.40702 34180 ft 412 kts 232°
2026-05-04 16:17 35.32375 -13.53492 34177 ft 410 kts 232°
2026-05-04 16:18 35.24616 -13.63685 34185 ft 408 kts 232°
2026-05-04 16:19 35.14928 -13.76354 34183 ft 407 kts 232°
2026-05-04 16:20 35.05896 -13.88122 34181 ft 407 kts 231°
2026-05-04 16:22 34.96220 -14.00670 34176 ft 406 kts 231°
2026-05-04 16:23 34.84619 -14.15693 34160 ft 406 kts 231°
2026-05-04 16:25 34.72975 -14.30660 34169 ft 406 kts 230°
2026-05-04 16:26 34.59402 -14.48070 34143 ft 407 kts 230°
2026-05-04 16:28 34.49622 -14.60553 34149 ft 409 kts 230°
2026-05-04 16:29 34.35886 -14.77992 34155 ft 408 kts 230°
2026-05-04 16:31 34.26074 -14.90412 34144 ft 408 kts 229°
2026-05-04 16:32 34.14247 -15.05297 34123 ft 413 kts 229°
2026-05-04 16:33 34.06281 -15.15321 34130 ft 414 kts 229°
2026-05-04 16:34 34.02264 -15.20347 33513 ft 419 kts 229°
2026-05-04 16:34 34.00234 -15.22879 32952 ft 421 kts 229°
2026-05-04 16:35 33.94104 -15.30530 31316 ft 424 kts 229°
2026-05-04 16:35 33.87940 -15.38224 29819 ft 427 kts 228°
2026-05-04 16:36 33.85873 -15.40794 29269 ft 428 kts 228°
2026-05-04 16:36 33.81702 -15.45952 28196 ft 431 kts 228°
2026-05-04 16:37 33.77550 -15.51121 27163 ft 427 kts 228°
2026-05-04 16:37 33.75491 -15.53680 26663 ft 425 kts 228°
2026-05-04 16:37 33.71423 -15.58720 25672 ft 421 kts 228°
2026-05-04 16:38 33.67372 -15.63729 24729 ft 415 kts 228°
2026-05-04 16:39 33.61378 -15.71121 23297 ft 408 kts 228°
2026-05-04 16:39 33.57438 -15.75965 22246 ft 404 kts 228°
2026-05-04 16:40 33.53520 -15.80744 21220 ft 400 kts 227°
2026-05-04 16:40 33.49558 -15.85387 20231 ft 396 kts 226°
2026-05-04 16:41 33.45623 -15.89957 19320 ft 392 kts 226°
2026-05-04 16:41 33.39782 -15.96770 18014 ft 389 kts 225°
2026-05-04 16:42 33.34111 -16.03387 16450 ft 360 kts 225°
2026-05-04 16:43 33.30675 -16.07392 15492 ft 331 kts 225°
2026-05-04 16:43 33.27519 -16.11069 14770 ft 304 kts 225°
2026-05-04 16:43 33.26051 -16.12777 14421 ft 295 kts 225°
2026-05-04 16:44 33.20440 -16.19292 12922 ft 266 kts 225°
2026-05-04 16:45 33.17771 -16.22393 12158 ft 269 kts 225°
2026-05-04 16:46 33.13730 -16.27085 11121 ft 271 kts 225°
2026-05-04 16:46 33.11019 -16.30219 10446 ft 272 kts 225°
2026-05-04 16:47 33.08305 -16.33355 9757 ft 272 kts 225°
2026-05-04 16:47 33.05595 -16.36490 9023 ft 265 kts 224°
2026-05-04 16:48 33.01776 -16.40892 7950 ft 249 kts 224°
2026-05-04 16:48 33.00525 -16.42329 7605 ft 251 kts 224°
2026-05-04 16:49 32.98072 -16.45158 6920 ft 238 kts 224°
2026-05-04 16:49 32.95780 -16.47799 6244 ft 221 kts 224°
2026-05-04 16:50 32.93640 -16.50268 5588 ft 207 kts 224°
2026-05-04 16:50 32.91602 -16.52554 4941 ft 195 kts 221°
2026-05-04 16:51 32.89606 -16.54672 4331 ft 193 kts 221°
2026-05-04 16:51 32.88602 -16.55738 3993 ft 194 kts 221°
2026-05-04 16:51 32.86598 -16.57869 3370 ft 192 kts 221°
2026-05-04 16:52 32.84642 -16.59951 3011 ft 185 kts 221°
2026-05-04 16:52 32.83683 -16.60973 3015 ft 185 kts 221°
2026-05-04 16:53 32.81692 -16.62867 3016 ft 182 kts 211°
2026-05-04 16:53 32.78165 -16.64531 2918 ft 183 kts 200°
2026-05-04 16:54 32.76971 -16.65013 2839 ft 181 kts 200°
2026-05-04 16:55 32.72447 -16.66846 2616 ft 161 kts 200°
2026-05-04 16:55 32.70342 -16.67704 2516 ft 160 kts 200°
2026-05-04 16:56 32.68246 -16.68551 2419 ft 159 kts 200°
2026-05-04 16:56 32.65140 -16.69808 2285 ft 152 kts 201°
2026-05-04 16:57 32.64145 -16.70210 2233 ft 151 kts 201°
2026-05-04 16:57 32.62372 -16.71501 2105 ft 150 kts 225°
2026-05-04 16:58 32.60917 -16.74740 2024 ft 152 kts 258°
2026-05-04 16:58 32.60842 -16.76023 2008 ft 156 kts 272°
2026-05-04 16:59 32.61396 -16.78446 1866 ft 155 kts 300°
2026-05-04 17:00 32.65051 -16.80349 1059 ft 151 kts 358°
2026-05-04 17:00 32.68057 -16.79560 462 ft 152 kts 45°
2026-05-04 17:01 32.69507 -16.77777 174 ft 136 kts 45°
2026-05-04 17:01 32.70300 -16.76854 188 ft 28 kts 34°
2026-05-04 17:02 32.70324 -16.76812 191 ft 16 kts 226°
2026-05-04 17:02 32.70051 -16.77137 193 ft 27 kts 220°
2026-05-04 17:03 32.69888 -16.77177 186 ft 17 kts 179°
2026-05-04 17:03 32.69806 -16.77218 181 ft 9 kts 226°
2026-05-04 17:03 32.69689 -16.77362 169 ft 10 kts 226°
2026-05-04 17:04 32.69582 -16.77494 169 ft 10 kts 226°
2026-05-04 17:04 32.69516 -16.77565 169 ft 4 kts 185°
2026-05-04 17:05 32.69476 -16.77528 169 ft 3 kts 137°
2026-05-04 17:05 32.69469 -16.77521 169 ft 0 kts 138°